FALCON 9 R/B (43230 NORAD) Tracking and Keplerian Element Data

This shows tracking and keplerian element data for the satellite.

Feedback or suggestion? Click here.




ElementValue
Catalog43230
NameFALCON 9 R/B
Epoch Orbit108
Epoch Day94.26603564
Epoch Year2018
RAAN60.2918
Inclination27.0518
Eccentricity0.6257074
Argument of Perigee210.4305
Mean Anonmoly90.2536
Mean Motion3.73667717
Decay Rate0.00015084
L11 43230U 18023C 18094.26603564 .00015084 57389-6 40714-3 0 9995
L22 43230 27.0518 60.2918 6257074 210.4305 90.2536 3.73667717 1080

Live tracking and technical data element details for FALCON 9 R/B (NORAD 43230). FALCON 9 R/B can be tracked NOW for your location showing map with azimuth and elevation plus other details from your city location.

Track the satellite on the map from your city or location and see movement details for azimuth, elevation, latitude, longitude, range, height, and movement on the map or in text.







IsCatalogInMostPopularTable: catalog: 43230, numindb: 91
Update: records affected: 1



GetName: 43230 FALCON 9 R/B

Hit Count: updated at: Tue, 13 Nov 2018 07:01:48 GMT